Showing default

OPS 9845 (DMSP 5D-2 F6), 13736

Orbit data source: Space-Track

OPS 9845 (DMSP 5D-2 F6), 13736 is a payload satellite owned by USAF SD (US) in SSO that was launched on Tue, 21 Dec 1982 UTC via an ATLAS E launch vehicle from the Air Force Western Test Range (AFWTR). Payload-class satellites include a variety of spacecraft equipped with specific instruments for various scientific and technological missions. These include communications satellites like Starlink; space stations such as the ISS; scientific satellites like the Hubble; Earth observation satellites from companies like Planet Labs, Umbra, and HawkEye 360; GPS; miniature CubeSats for education and research; and military/defense satellites.

Loading next visibility...
Identifier
13736, 1982-118A
Orbit
SSO
Country
Flag of USUS
Related business
Manufacturer
RCA/East Windsor
Mission
Non-operational spacecraft
Bus & Motor
BLOCK 5D, STAR 37S
Mass
1,474 kg wet, 760 kg dry
Launch date (UTC)
1982-12-21 (43 years ago)
Launch vehicle
ATLAS E
Launch site
Air Force Western Test Range (AFWTR)
Object type
Payload
Rocket body
Debris
Shape & HBR
Unknown
Radar Cross Section
Large (>1 m²)

Expand to show TLE details & history
Last TLE update: 13 hours ago

TLE from 13 hours ago
0 OPS 9845 (DMSP 5D-2 F6)
1 13736U 82118A   25311.27587323  .00000334  00000-0  14520-3 0  9994
2 13736  98.5907 136.5964 0006486 256.7984 103.2475 14.30398127233287
Epoch: 2025-11-07T06:37Z
TLE epoch observation values (Epoch: 2025-11-07T06:37:15.447Z)
Latitude
-0.00001°
Longitude
-9.44013°
Altitude
794.401 km
Speed
7.456 km/s
True Right ascension
09h 06m 23s
True Declination
0° 00' 00"
Sunlit
Object was in daylight at epoch
Visualization orbit readout
Latitude
Unknown
Longitude
Unknown
Altitude
Unknown
Speed
Unknown
Apparent Right ascension
Unknown
Apparent Declination
Unknown
Sunlit
N/A
Visualization observer readout
Local Sidereal Time
16:01:52
Azimuth
Unknown
Elevation
Unknown
Doppler factor
Unknown
Orbital elements
Apogee altitude
792.187 km
Perigee altitude
782.892 km
Semi-major axis
7,165.676 km
Eccentricity
0.00065
Inclination
98.5907°
RAAN
136.5964°
Arg. of periapsis
256.7984°
True anomaly
103.31983°
Mean anomaly
103.2475°
Eccentric anomaly
103.28367°
Mean motion
3.57814 °/min
Orbital period
100.61 mins
BSTAR
0.0001452
Loading maneuver chart data...
Computing Atmospheric mass density...
Loading historical data...
Loading historical data...
Loading historical data...
Loading historical data...
Loading historical data...
Loading historical data...
Loading historical data...

Documentation

Showing up to 5 results
|